(270109) = 2001 RA8

Discovered at Socorro on 2001-09-08 by LINEAR.

Orbit

Orbit type: Main Belt

Note: WebGL enabled browser required.

epoch2024-03-31.0
epoch JD2460400.5
perihelion date2025-10-10.43865
perihelion JD2460958.93865
argument of perihelion (°)292.48849
ascending node (°)311.01377
inclination (°)7.58073
eccentricity0.1653933
perihelion distance (AU)1.9483795
Tisserand w.r.t. Jupiter3.5
ΔV w.r.t. Earth (km/sec)9.0
semimajor axis (AU)2.3344883
mean anomaly (°)205.69082
mean daily motion (°/day)0.27632250
aphelion distance (AU)2.721
period (years)3.57
P-vector [x]-0.44006916
P-vector [y]-0.76775480
P-vector [z]-0.46571634
Q-vector [x]0.89242948
Q-vector [y]-0.43143081
Q-vector [z]-0.13204952
absolute magnitude16.46
phase slope0.15
uncertainty0
referenceMPEC 2024-C107
observations used708
oppositions14
arc length (days)8735
first opposition used2000
last opposition used2024
residual rms (arc-secs)0.73
perturbers coarse indicatorM-v
perturbers precise indicator003Ek
first observation date used2000-03-11.0
last observation date used2024-02-09.0
computer nameMPCLINUX
JD of orbit computation2456760.723124
perihelion JD uncertainty (days)9.0745E-05
argument of perihelion uncertainty (°)4.2415E-05
ascending node uncertainty (°)3.6543E-05
inclination uncertainty (°)6.3123E-06
eccentricity uncertainty 4.4369E-08
perihelion distance uncertainty (AU)1.0755E-07
Minimum Orbit Intersection Distances (in AU)
for orbit epoch: 2460200.5, reference: E2024-CA7
Mercury1.48823
Venus1.23567
Earth0.9521
Mars0.46561
Jupiter2.35151
Saturn6.3889
Uranus16.1287
Neptune27.196

Observations

731 total observations over interval: 2000 03 11.22077 – 2024 02 09.259578
These data are available for download (format description).

Date (UT) J2000 RA J2000 Dec Magn Location Ref
2000 03 11.22077 10 17 35.51 +03 09 51.3 19.1 R 699 – Lowell Observatory-LONEOS MPS 197992
2000 03 11.24438 10 17 33.97 +03 09 57.0   699 – Lowell Observatory-LONEOS MPS 197992
2000 03 11.26796 10 17 32.48 +03 09 59.8   699 – Lowell Observatory-LONEOS MPS 197992
2000 03 11.29160 10 17 31.01 +03 10 04.1   699 – Lowell Observatory-LONEOS MPS 197992
2001 08 24.31165 23 39 07.40 +05 41 56.2 19.1 R 699 – Lowell Observatory-LONEOS MPS 37947
2001 08 24.34405 23 39 05.82 +05 41 56.3   699 – Lowell Observatory-LONEOS MPS 37947
2001 08 24.37157 23 39 04.34 +05 41 55.8   699 – Lowell Observatory-LONEOS MPS 37947
2001 08 24.39914 23 39 02.76 +05 41 53.9   699 – Lowell Observatory-LONEOS MPS 37947
2001 08 25.33239 23 38 14.34 +05 40 56.7 19.5   704 – Lincoln Laboratory ETS, New Mexico MPS 37947
2001 08 25.34550 23 38 13.64 +05 40 55.6 19.6   704 – Lincoln Laboratory ETS, New Mexico MPS 37947
2001 08 25.37117 23 38 12.22 +05 40 54.2 19.7   704 – Lincoln Laboratory ETS, New Mexico MPS 37947
2001 08 25.38389 23 38 11.55 +05 40 53.2 19.8   704 – Lincoln Laboratory ETS, New Mexico MPS 37947
2001 09 08.19648 23 24 47.13 +05 08 59.0 19.3   704 – Lincoln Laboratory ETS, New Mexico MPS 34967
2001 09 08.21009 23 24 46.32 +05 08 56.3 19.3   704 – Lincoln Laboratory ETS, New Mexico MPS 34967
2001 09 08.23755 23 24 44.58 +05 08 51.8 19.8   704 – Lincoln Laboratory ETS, New Mexico MPS 34967
2001 09 08.25120 23 24 43.70 +05 08 48.3 19.3   704 – Lincoln Laboratory ETS, New Mexico MPS 34967
2001 09 10.32170 23 22 35.32 +05 01 33.6 19.2   704 – Lincoln Laboratory ETS, New Mexico MPS 34967
2001 09 10.33538 23 22 34.45 +05 01 29.5 19.5   704 – Lincoln Laboratory ETS, New Mexico MPS 34967
2001 09 10.34899 23 22 33.61 +05 01 27.7 19.7   704 – Lincoln Laboratory ETS, New Mexico MPS 34967
2001 09 10.36265 23 22 32.72 +05 01 24.5 19.1   704 – Lincoln Laboratory ETS, New Mexico MPS 34967
2001 09 10.37629 23 22 31.84 +05 01 21.4 19.4   704 – Lincoln Laboratory ETS, New Mexico MPS 34967
2001 09 11.18579 23 21 42.16 +04 58 21.9 19.1 R 699 – Lowell Observatory-LONEOS MPS 34967
2001 09 11.21168 23 21 40.51 +04 58 15.6   699 – Lowell Observatory-LONEOS MPS 34967
2001 09 11.23770 23 21 38.81 +04 58 10.8   699 – Lowell Observatory-LONEOS MPS 34967
2001 09 11.26345 23 21 37.15 +04 58 04.8   699 – Lowell Observatory-LONEOS MPS 34967
2001 09 16.20258 23 16 33.49 +04 38 25.8 20.1   644 – Palomar Mountain/NEAT MPS 36209
2001 09 16.22350 23 16 32.17 +04 38 20.3 19.8   644 – Palomar Mountain/NEAT MPS 36209
2001 09 16.24492 23 16 30.80 +04 38 15.2 19.4   644 – Palomar Mountain/NEAT MPS 36209
2001 09 16.29610 23 16 27.56 +04 38 01.6 19.3   704 – Lincoln Laboratory ETS, New Mexico MPS 36209
2001 09 16.31043 23 16 26.64 +04 37 58.2 19.7   704 – Lincoln Laboratory ETS, New Mexico MPS 36209
2001 09 16.32477 23 16 25.73 +04 37 53.8 19.9   704 – Lincoln Laboratory ETS, New Mexico MPS 36209
2001 09 16.33911 23 16 24.84 +04 37 50.3 19.5   704 – Lincoln Laboratory ETS, New Mexico MPS 36209
2001 09 16.35436 23 16 23.89 +04 37 46.8 19.6   704 – Lincoln Laboratory ETS, New Mexico MPS 36209
2001 09 20.24771 23 12 32.08 +04 20 53.3 19.0   704 – Lincoln Laboratory ETS, New Mexico MPS 36209
2001 09 20.26255 23 12 31.20 +04 20 49.4 19.4   704 – Lincoln Laboratory ETS, New Mexico MPS 36209
2001 09 20.27776 23 12 30.15 +04 20 45.6 19.8   704 – Lincoln Laboratory ETS, New Mexico MPS 36209
2001 09 20.29210 23 12 29.36 +04 20 41.3 19.3   704 – Lincoln Laboratory ETS, New Mexico MPS 36209
2001 09 20.30796 23 12 28.50 +04 20 36.2 20.1   704 – Lincoln Laboratory ETS, New Mexico MPS 36209
2006 11 01.49578 09 25 44.53 +17 20 55.6 21.6 V 691 – Steward Observatory, Kitt Peak-Spacewatch MPS 197992
2006 11 01.50823 09 25 45.40 +17 20 50.3 21.7 V 691 – Steward Observatory, Kitt Peak-Spacewatch MPS 197992
2006 11 01.52067 09 25 46.17 +17 20 46.1 21.3 V 691 – Steward Observatory, Kitt Peak-Spacewatch MPS 197992
2006 12 13.51307 09 57 44.74 +13 31 30.1 20.8 V G96 – Mt. Lemmon Survey MPS 197992
2006 12 13.51762 09 57 44.82 +13 31 29.3 21.2 V G96 – Mt. Lemmon Survey MPS 197992
2006 12 13.52202 09 57 44.89 +13 31 28.2 20.6 V G96 – Mt. Lemmon Survey MPS 197992
2006 12 13.52650 09 57 45.00 +13 31 27.3 20.4 V G96 – Mt. Lemmon Survey MPS 197992
2007 01 10.44767 09 54 56.88 +12 27 17.1 20.0 V G96 – Mt. Lemmon Survey MPS 197992
2007 01 10.45346 09 54 56.70 +12 27 16.7 20.1 V G96 – Mt. Lemmon Survey MPS 197992
2007 01 10.45928 09 54 56.52 +12 27 16.5 19.8 V G96 – Mt. Lemmon Survey MPS 197992
2007 01 10.46554 09 54 56.23 +12 27 16.3 19.4 V G96 – Mt. Lemmon Survey MPS 197992
2007 01 17.34972 09 50 34.43 +12 25 48.5 20.7 R 683 – Goodricke-Pigott Observatory, Tucson MPS 197992
2007 01 17.37711 09 50 33.26 +12 25 50.9 20.9 R 683 – Goodricke-Pigott Observatory, Tucson MPS 197992
2007 01 17.44699 09 50 29.79 +12 25 49.0 19.9 V G96 – Mt. Lemmon Survey MPS 197992
2007 01 17.45263 09 50 29.58 +12 25 48.9 20.1 V G96 – Mt. Lemmon Survey MPS 197992
2007 01 17.45825 09 50 29.29 +12 25 49.2 19.8 V G96 – Mt. Lemmon Survey MPS 197992
2007 01 17.46390 09 50 29.04 +12 25 48.7 20.0 V G96 – Mt. Lemmon Survey MPS 197992
2007 01 27.27516 09 41 58.52 +12 32 19.4 19.7 V G96 – Mt. Lemmon Survey MPS 197992
2007 01 27.28310 09 41 58.02 +12 32 20.0 19.5 V G96 – Mt. Lemmon Survey MPS 197992
2007 01 27.29097 09 41 57.55 +12 32 20.8 19.3 V G96 – Mt. Lemmon Survey MPS 197992
2007 01 27.29891 09 41 57.08 +12 32 21.3 19.5 V G96 – Mt. Lemmon Survey MPS 197992
2007 01 27.36066 09 41 53.27 +12 32 25.6 19.8 V 691 – Steward Observatory, Kitt Peak-Spacewatch MPS 197992
2007 01 27.37872 09 41 52.16 +12 32 27.1 19.8 V 691 – Steward Observatory, Kitt Peak-Spacewatch MPS 197992
2007 01 27.39701 09 41 51.06 +12 32 28.1 19.8 V 691 – Steward Observatory, Kitt Peak-Spacewatch MPS 197992
2007 02 06.27017 09 31 20.50 +12 45 57.2   691 – Steward Observatory, Kitt Peak-Spacewatch MPS 198622
2007 02 06.28851 09 31 19.21 +12 45 58.9   691 – Steward Observatory, Kitt Peak-Spacewatch MPS 198622
2007 02 06.31055 09 31 17.55 +12 46 00.7   691 – Steward Observatory, Kitt Peak-Spacewatch MPS 198622
2007 02 06.43311 09 31 09.12 +12 46 12.2 19.2 V G96 – Mt. Lemmon Survey MPS 198622
2007 02 06.44111 09 31 08.58 +12 46 12.9 19.3 V G96 – Mt. Lemmon Survey MPS 198622
2007 02 06.44924 09 31 08.00 +12 46 13.5 19.1 V G96 – Mt. Lemmon Survey MPS 198622
2007 02 06.45720 09 31 07.46 +12 46 14.3 19.2 V G96 – Mt. Lemmon Survey MPS 198622
2007 02 07.19191 09 30 18.23 +12 47 24.8   691 – Steward Observatory, Kitt Peak-Spacewatch MPS 198622
2007 02 07.20959 09 30 16.98 +12 47 26.5   691 – Steward Observatory, Kitt Peak-Spacewatch MPS 198622
2007 02 07.22729 09 30 15.74 +12 47 28.4   691 – Steward Observatory, Kitt Peak-Spacewatch MPS 198622
2007 02 07.36824 09 30 05.91 +12 47 42.1 19.0 R 644 – Palomar Mountain/NEAT MPS 198622
2007 02 07.38860 09 30 04.48 +12 47 43.9 19.2 R 644 – Palomar Mountain/NEAT MPS 198622
2007 02 07.41377 09 30 02.70 +12 47 46.2 18.5 R 644 – Palomar Mountain/NEAT MPS 198622
2007 02 08.30419 09 29 02.27 +12 49 12.1 18.4 R 644 – Palomar Mountain/NEAT MPS 199411
2007 02 08.32577 09 29 00.74 +12 49 14.2 18.7 R 644 – Palomar Mountain/NEAT MPS 199411
2007 02 08.34610 09 28 59.29 +12 49 16.1 18.8 R 644 – Palomar Mountain/NEAT MPS 199411
2007 02 10.39068 09 26 39.01 +12 52 35.8 18.6 V G96 – Mt. Lemmon Survey MPS 199411
2007 02 10.39448 09 26 38.72 +12 52 36.2 18.9 V G96 – Mt. Lemmon Survey MPS 199411
2007 02 10.39823 09 26 38.47 +12 52 36.6 18.6 V G96 – Mt. Lemmon Survey MPS 199411
2007 02 10.40193 09 26 38.18 +12 52 37.1 18.7 V G96 – Mt. Lemmon Survey MPS 199411
2007 02 13.31663 09 23 17.87 +12 57 24.6 19.2   704 – Lincoln Laboratory ETS, New Mexico MPS 199411
2007 02 13.32773 09 23 17.16 +12 57 26.0 19.2   704 – Lincoln Laboratory ETS, New Mexico MPS 199411
2007 02 13.33893 09 23 16.40 +12 57 28.1 19.2   704 – Lincoln Laboratory ETS, New Mexico MPS 199411
2007 02 13.35003 09 23 15.63 +12 57 28.2 19.3   704 – Lincoln Laboratory ETS, New Mexico MPS 199411
2007 03 10.16892 08 59 18.27 +13 24 54.7 19.5 V 703 – Catalina Sky Survey MPS 202896
2007 03 10.17544 08 59 17.98 +13 24 55.1 19.5 V 703 – Catalina Sky Survey MPS 202896
2007 03 10.18197 08 59 17.77 +13 24 57.0 19.8 V 703 – Catalina Sky Survey MPS 202896
